Location: Crescent
(42.8242°N, 73.7329°W)
Time: 19:04:41
(UTC+00:00)

Transit 4A - Pass Details

Date: 19 February 2026
Orbit: 864 x 977 km, 66.8° (Epoch: 10 March)

Event Time Altitude Azimuth Distance (km) Brightness Sun altitude
Rises 07:27:06 0° 184° (S) 3,438 - -46.4°
Reaches altitude 10° 07:29:43 10° 176° (S) 2,513 - -46.1°
Maximum altitude 07:34:58 37° 110° (ESE) 1,353 - -45.3°
Exits shadow 07:38:55 17° 53° (NE) 2,110 10.2 -44.7°
Drops below altitude 10° 07:40:23 10° 46° (NE) 2,586 10.8 -44.4°
Sets 07:43:05 0° 38° (NE) 3,550 11.6 -44.0°
